Meteo18 Weather Cam more information Meteo18 Weather Cam


Thunder radar more information blitzortung!


Rain radar more information rain snow radar



Select another period ( hide this area )

Units Period Custom range Directly to
Metric English Both
Daily Weekly Monthly Yearly
use both date-selectors for a custom range
previous Day
With this date

WeatherUnderground graphs for this period ( click here )


Daily Summary for Wednesday 16 October 2019
Time Temp. ( °C ) Dew pt. ( °C ) Wind ( km/h ) from Gust ( km/h ) Pressure ( hPa ) Humid.( % ) Rainrate ( cm )
High18,8 12,0 28,8 SW ( 1413/2200 ) 37,0 1015,5 95 0,30
Average13,4 10,1 9,4 SW #107/234 14,7 1013,7 81 0,60
Low9,4 8,3 -   1,6 1011,7 56 -
Daily Tabular details for Wednesday 16 October 2019
Time Temp. ( °C ) Dew pt. ( °C ) Wind ( km/h ) from Gust ( km/h ) Pressure ( hPa ) Humid.( % ) Rainrate ( cm )
00:00 9,5 8,4 4,7 SW 6,4 1015,1 93 -
00:06 9,4 8,3 1,4 SW 3,2 1015,1 93 -
00:10 9,4 8,3 3,2 SW 4,8 1015,1 93 -
00:16 9,6 8,7 6,4 SW 8,0 1015,1 94 -
00:20 9,9 9,0 4,7 SSE 9,7 1015,1 94 -
00:26 10,1 9,0 4,7 SSW 6,4 1015,1 93 -
00:30 10,1 9,0 3,2 SW 4,8 1015,1 93 -
00:36 10,1 9,0 4,7 SW 6,4 1015,1 93 -
00:40 10,1 9,0 4,7 SW 6,4 1015,1 93 -
00:46 10,1 9,0 6,4 SW 6,4 1015,1 93 -
00:50 10,1 9,0 6,4 SW 8,0 1015,1 93 -
00:56 10,2 9,1 4,7 SW 8,0 1015,1 93 -
01:00 10,2 9,1 6,4 SW 8,0 1015,1 93 -
01:06 10,3 9,2 4,7 SW 8,0 1015,1 93 -
01:10 10,3 9,2 4,7 SW 6,4 1015,1 93 -
01:16 10,5 9,4 3,2 SW 6,4 1015,1 93 -
01:21 10,5 9,3 3,2 SSW 8,0 1015,1 92 -
01:25 10,6 9,4 4,7 SW 8,0 1015,5 92 -
01:31 10,6 9,4 1,4 SSE 6,4 1015,5 92 -
01:35 10,6 9,4   Calm 4,8 1015,1 92 -
01:41 10,6 9,4 4,7 South 4,8 1015,1 92 -
01:45 10,6 9,4 3,2 SE 3,2 1015,1 92 -
01:51 10,6 9,4   Calm 3,2 1015,1 92 -
01:55 10,6 9,4 1,4 SSE 4,8 1015,1 92 -
02:01 10,6 9,4 3,2 SSW 3,2 1015,1 92 -
02:05 10,6 9,4 1,4 SSW 6,4 1015,1 92 -
02:11 10,6 9,4   Calm 4,8 1015,1 92 -
02:15 10,6 9,4 3,2 South 6,4 1015,1 92 -
02:21 10,7 9,5 4,7 SSW 6,4 1015,1 92 -
02:25 10,7 9,5 3,2 SW 6,4 1015,1 92 -
02:31 10,8 9,6 1,4 SSW 8,0 1015,1 92 -
02:35 10,8 9,6 6,4 SSW 8,0 1015,1 92 -
02:41 10,8 9,6 3,2 SSW 6,4 1015,1 92 -
02:45 10,8 9,6 3,2 SSW 6,4 1015,1 92 -
02:51 10,9 9,7 3,2 SE 4,8 1015,1 92 -
02:55 10,9 9,7 1,4 South 11,3 1014,8 92 -
03:01 10,8 9,6 3,2 SSE 3,2 1015,1 92 -
03:05 10,8 9,6 3,2 SW 4,8 1015,1 92 -
03:11 10,8 9,7 1,4 SSW 4,8 1015,1 93 -
03:15 10,8 9,7 1,4 SSW 6,4 1015,1 93 -
03:21 10,7 9,6 3,2 South 6,4 1015,1 93 -
03:25 10,8 9,7 1,4 SSE 6,4 1014,8 93 -
03:31 10,8 9,7 1,4 WSW 4,8 1014,8 93 -
03:35 10,8 9,7 3,2 SSW 8,0 1014,8 93 -
03:41 10,8 9,7 1,4 SSW 8,0 1014,8 93 -
03:45 10,8 9,7 1,4 South 9,7 1014,8 93 -
03:51 10,8 9,6 4,7 SSW 8,0 1014,8 92 -
03:55 10,8 9,7 4,7 SSW 8,0 1014,8 93 -
04:01 10,8 9,7 4,7 SSW 6,4 1014,8 93 -
04:05 10,8 9,7 3,2 SW 6,4 1014,8 93 -
04:11 10,7 9,6 6,4 SSW 6,4 1014,8 93 -
04:15 10,7 9,6 3,2 SSE 6,4 1014,8 93 -
04:21 10,7 9,6 6,4 South 6,4 1014,4 93 -
04:25 10,7 9,6 3,2 SSE 4,8 1014,4 93 -
04:31 10,7 9,6 3,2 South 4,8 1014,4 93 -
04:35 10,8 9,7 4,7 South 6,4 1014,4 93 -
04:41 10,8 9,7 7,9 SW 11,3 1014,4 93 -
04:45 10,9 9,8 4,7 South 8,0 1014,4 93 -
04:51 10,9 9,8 6,4 SSW 8,0 1014,4 93 -
04:55 10,9 10,0 7,9 SW 11,3 1014,4 94 -
05:01 11,0 10,1 3,2 SSW 6,4 1014,4 94 0,30
05:05 10,9 10,0 3,2 SW 6,4 1014,1 94 0,30
05:11 10,9 10,0 1,4 South 4,8 1014,1 94 0,30
05:15 10,9 10,0 3,2 SE 8,0 1014,1 94 0,30
05:21 10,9 10,0 1,4 SW 6,4 1014,1 94 0,30
05:25 10,9 10,0 1,4 SSW 4,8 1014,1 94 0,30
05:31 10,9 10,0 3,2 SW 6,4 1014,1 94 0,30
05:35 10,9 10,0 3,2 SSW 6,4 1014,1 94 0,30
05:41 10,8 9,9 4,7 SSW 6,4 1014,1 94 0,30
05:45 10,8 9,9 4,7 South 6,4 1014,1 94 0,30
05:51 10,7 9,8 1,4 SSW 8,0 1013,8 94 0,30
05:55 10,6 9,7 6,4 SSW 6,4 1014,1 94 0,30
06:01 10,5 9,6 3,2 SSW 4,8 1014,1 94 -
06:05 10,4 9,5   Calm 6,4 1014,1 94 -
06:11 10,4 9,5 1,4 SSW 4,8 1014,1 94 -
06:15 10,3 9,4 1,4 South 6,4 1013,8 94 -
06:21 10,3 9,4 4,7 South 4,8 1013,8 94 -
06:25 10,3 9,4 1,4 SSE 3,2 1013,8 94 -
06:31 10,3 9,4 1,4 South 4,8 1014,1 94 -
06:35 10,3 9,4 1,4 SSE 4,8 1013,8 94 -
06:41 10,3 9,4 1,4 South 3,2 1014,1 94 -
06:45 10,3 9,4 3,2 South 4,8 1014,1 94 -
06:51 10,3 9,4   Calm 3,2 1013,8 94 -
06:55 10,3 9,4   Calm 3,2 1014,1 94 -
07:01 10,3 9,4 1,4 SE 3,2 1013,8 94 -
07:05 10,3 9,4 1,4 SSE 4,8 1013,8 94 -
07:11 10,3 9,4   Calm 4,8 1013,8 94 -
07:15 10,3 9,4 1,4 SW 3,2 1013,8 94 -
07:21 10,3 9,4 4,7 SW 6,4 1013,8 94 -
07:25 10,2 9,3 3,2 South 4,8 1014,1 94 -
07:31 10,2 9,3   Calm 3,2 1013,8 94 -
07:35 10,1 9,0   Calm 1,6 1013,8 93 -
07:41 9,9 9,0 1,4 SSW 3,2 1013,8 94 -
07:45 9,9 9,0 3,2 SSE 4,8 1013,8 94 -
07:52 9,8 8,9   Calm 3,2 1013,8 94 -
07:56 9,8 8,9 1,4 SW 3,2 1013,8 94 -
08:00 9,8 8,9 1,4 SSW 4,8 1013,8 94 -
08:06 9,8 8,9 3,2 SSE 4,8 1013,8 94 -
08:10 9,8 8,9 1,4 SSW 4,8 1013,8 94 -
08:16 9,8 8,9 1,4 SW 3,2 1013,8 94 -
08:20 9,8 8,9   Calm 1,6 1013,8 94 -
08:26 9,7 8,8   Calm 4,8 1013,8 94 -
08:30 9,7 8,8 1,4 SSW 3,2 1013,8 94 -
08:36 9,7 8,8   Calm 3,2 1013,8 94 -
08:40 9,7 8,8   Calm 3,2 1013,8 94 -
08:46 9,8 8,9   Calm 1,6 1014,1 94 -
08:50 9,8 9,0 1,4 SSW 3,2 1014,1 95 -
08:56 10,0 9,2 1,4 SSW 3,2 1014,1 95 -
09:00 10,2 9,4   Calm 3,2 1014,1 95 -
09:06 10,5 9,7 1,4 SSW 4,8 1014,1 95 -
09:10 10,7 9,9 4,7 South 9,7 1014,1 95 -
09:16 11,1 10,2 9,7 SW 12,9 1014,1 94 -
09:20 11,3 10,2 11,1 SW 16,1 1014,1 93 -
09:26 11,6 10,3 16,3 SSW 16,1 1014,1 92 -
09:30 11,7 10,4 4,7 SSW 16,1 1014,1 92 -
09:36 11,9 10,5 13,0 SW 17,7 1014,1 91 -
09:40 12,1 10,5 11,1 SW 19,3 1014,1 90 -
09:46 12,2 10,4 7,9 South 14,5 1014,1 89 -
09:50 12,3 10,5 7,9 SSW 16,1 1014,1 89 -
09:56 12,3 10,5 9,7 SW 17,7 1014,1 89 -
10:00 12,4 10,5 14,3 SW 16,1 1014,1 88 -
10:06 12,6 10,7 6,4 SSW 12,9 1014,1 88 -
10:10 12,7 10,8 7,9 South 14,5 1014,4 88 -
10:16 12,8 10,7 16,3 SW 17,7 1014,4 87 -
10:20 12,9 10,6 9,7 SW 19,3 1014,4 86 -
10:26 13,1 11,0 6,4 SSW 12,9 1014,4 87 -
10:30 13,3 11,0 7,9 South 16,1 1014,4 86 -
10:36 13,6 11,3 13,0 South 12,9 1014,4 86 -
10:40 13,7 11,0 13,0 SW 14,5 1014,4 84 -
10:46 13,8 11,1 11,1 SW 17,7 1014,4 84 -
10:50 13,8 11,1 7,9 SW 14,5 1014,4 84 -
10:56 14,0 11,3 4,7 SSW 14,5 1014,4 84 -
11:00 14,1 11,4 6,4 SW 20,9 1014,4 84 -
11:06 14,3 11,3 9,7 SSE 19,3 1014,4 82 -
11:10 14,3 11,1 14,3 SW 22,5 1014,1 81 -
11:16 14,4 11,4 6,4 SSW 19,3 1014,4 82 -
11:20 14,5 11,3 17,7 SW 22,5 1014,4 81 -
11:26 14,7 11,3 13,0 SSW 24,1 1014,1 80 -
11:30 14,8 11,2 13,0 SW 25,7 1014,1 79 -
11:36 14,8 10,8 14,3 South 25,7 1014,1 77 -
11:40 14,9 11,1 17,7 SW 27,4 1014,1 78 -
11:46 15,1 10,9 17,7 SW 27,4 1014,1 76 -
11:50 15,2 10,6 14,3 SW 27,4 1014,1 74 -
11:56 15,3 11,1 16,3 SW 24,1 1014,1 76 -
12:00 15,4 10,8 20,9 SW 29,0 1014,1 74 -
12:06 15,7 11,1 17,7 SW 32,2 1014,1 74 -
12:10 15,8 11,2 22,7 SSW 25,7 1014,1 74 -
12:16 15,8 11,2 19,5 WSW 29,0 1014,1 74 -
12:20 15,8 11,0 22,7 SSW 29,0 1014,1 73 -
12:26 16,1 11,3 22,7 SSW 27,4 1013,8 73 -
12:30 16,3 11,5 16,3 SW 25,7 1013,8 73 -
12:36 16,5 11,2 19,5 SW 29,0 1013,8 71 -
12:40 16,6 11,5 14,3 SW 25,7 1013,8 72 -
12:46 16,9 11,8 22,7 SSW 22,5 1013,8 72 -
12:50 17,1 12,0 14,3 SW 19,3 1013,4 72 -
12:56 17,2 11,5 17,7 SW 19,3 1013,4 69 -
13:00 17,2 11,5 24,1 SW 27,4 1013,4 69 -
13:06 17,3 10,7 19,5 WSW 29,0 1013,4 65 -
13:10 17,3 10,2 19,5 SW 32,2 1013,4 63 -
13:16 17,4 11,7 16,3 SW 25,7 1013,4 69 -
13:20 17,4 11,0 17,7 SW 29,0 1013,4 66 -
13:26 17,3 10,4 25,9 SW 35,4 1013,4 64 -
13:30 17,3 9,9 19,5 SW 33,8 1013,1 62 -
13:36 17,3 10,4 25,9 SW 32,2 1013,4 64 -
13:40 17,3 9,7 24,1 SW 33,8 1013,1 61 -
13:46 17,4 10,0 11,1 SW 29,0 1013,1 62 -
13:50 17,4 10,3 22,7 SW 33,8 1013,1 63 -
13:56 17,4 9,8 28,8 SW 35,4 1013,1 61 -
14:00 17,4 9,8 20,9 SW 30,6 1013,1 61 -
14:06 17,6 10,5 14,3 SW 35,4 1013,1 63 -
14:10 17,7 10,8 14,3 SW 22,5 1012,8 64 -
14:16 17,7 10,1 17,7 SW 30,6 1012,8 61 -
14:20 17,6 10,0 25,9 SW 30,6 1012,8 61 -
14:26 17,6 10,2 24,1 SSW 27,4 1012,8 62 -
14:30 17,9 10,8 19,5 WSW 25,7 1012,8 63 -
14:36 18,2 11,0 19,5 SW 24,1 1012,8 63 -
14:40 18,4 11,0 13,0 South 24,1 1012,8 62 -
14:46 18,7 11,3 24,1 SW 25,7 1012,8 62 -
14:50 18,6 9,9 24,1 SW 32,2 1012,8 57 -
14:56 18,3 9,6 19,5 SW 35,4 1012,8 57 -
15:00 18,1 9,7 17,7 SW 25,7 1012,8 58 -
15:06 18,1 10,2 9,7 SW 16,1 1012,8 60 -
15:10 18,1 10,0 27,4 SW 29,0 1012,8 59 -
15:16 18,3 10,6 24,1 SW 24,1 1012,8 61 -
15:20 18,4 10,5 25,9 WSW 29,0 1012,4 60 -
15:26 18,7 10,0 24,1 SW 30,6 1012,4 57 -
15:30 18,7 10,3 17,7 WSW 30,6 1012,4 58 -
15:36 18,8 10,6 17,7 WSW 24,1 1012,4 59 -
15:40 18,8 10,1 24,1 SW 37,0 1012,4 57 -
15:46 18,6 9,6 11,1 WSW 29,0 1012,4 56 -
15:50 18,6 10,4 27,4 SW 29,0 1012,4 59 -
15:56 18,4 10,7 25,9 SW 27,4 1012,4 61 -
16:01 18,3 10,4 11,1 SW 27,4 1012,1 60 -
16:05 18,2 9,8 22,7 SW 32,2 1012,4 58 -
16:11 18,0 9,9 6,4 SW 19,3 1012,4 59 -
16:15 17,8 10,2 11,1 SW 14,5 1012,1 61 -
16:21 17,7 10,6 13,0 SW 19,3 1012,1 63 -
16:25 17,7 10,8 14,3 SW 17,7 1012,1 64 -
16:31 17,6 10,7 20,9 SW 20,9 1012,1 64 -
16:35 17,6 10,5 7,9 SW 24,1 1012,4 63 -
16:41 17,7 10,3 20,9 SW 22,5 1012,1 62 -
16:45 17,6 10,2 7,9 SW 24,1 1012,1 62 -
16:51 17,6 10,0 16,3 SW 25,7 1012,1 61 -
16:55 17,6 10,2 7,9 SW 19,3 1012,1 62 -
17:01 17,5 10,1 14,3 SW 19,3 1012,1 62 -
17:05 17,4 10,3 11,1 WSW 20,9 1012,1 63 -
17:11 17,4 10,3 7,9 SSW 17,7 1012,1 63 -
17:15 17,3 10,2 11,1 WSW 20,9 1012,1 63 -
17:21 17,3 10,4 11,1 West 17,7 1012,1 64 -
17:25 17,3 10,4 14,3 WSW 17,7 1012,1 64 -
17:31 17,3 10,4 11,1 SW 16,1 1012,1 64 -
17:35 17,2 10,6 7,9 SW 17,7 1012,1 65 -
17:41 17,0 11,3 11,1 SSW 12,9 1012,1 69 -
17:45 16,8 11,3 13,0 SW 14,5 1012,1 70 -
17:51 16,7 11,4 11,1 SSW 16,1 1012,1 71 -
17:55 16,6 11,3 13,0 SSW 16,1 1011,7 71 -
18:01 16,4 11,1 7,9 SSW 16,1 1012,1 71 -
18:05 16,4 10,9 22,7 SW 22,5 1011,7 70 -
18:11 16,5 10,8 9,7 SSW 19,3 1012,1 69 -
18:15 16,3 10,8 9,7 SW 16,1 1012,1 70 -
18:21 16,2 10,9 9,7 SW 14,5 1012,1 71 -
18:25 16,2 10,7 9,7 West 14,5 1012,1 70 -
18:31 16,3 10,2 17,7 WSW 32,2 1011,7 67 -
18:35 16,5 10,1 20,9 SSW 30,6 1011,7 66 -
18:41 16,6 10,4 17,7 SW 25,7 1011,7 67 -
18:45 16,3 10,4 16,3 SSW 24,1 1011,7 68 -
18:51 16,2 10,3 17,7 West 25,7 1012,1 68 -
18:55 16,1 10,6 9,7 SW 17,7 1012,1 70 -
19:01 15,7 10,9 20,9 SW 20,9 1012,1 73 -
19:05 15,6 11,0 9,7 SSW 17,7 1012,1 74 -
19:11 15,1 11,1 7,9 SW 14,5 1012,1 77 -
19:15 14,9 11,3 14,3 SW 14,5 1012,1 79 -
19:21 14,7 11,3 7,9 SW 16,1 1012,1 80 -
19:25 14,6 11,4 13,0 SW 16,1 1012,1 81 0,30
Daily Summary for Wednesday 16 October 2019
Time Temp. ( °C ) Dew pt. ( °C ) Wind ( km/h ) from Gust ( km/h ) Pressure ( hPa ) Humid.( % ) Rainrate ( cm )
High18,8 12,0 28,8 SW ( 1413/2200 ) 37,0 1015,5 95 0,30
Average13,4 10,1 9,4 SW #107/234 14,7 1013,7 81 0,60
Low9,4 8,3 -   1,6 1011,7 56 -
Daily Tabular details for Wednesday 16 October 2019
Time Temp. ( °C ) Dew pt. ( °C ) Wind ( km/h ) from Gust ( km/h ) Pressure ( hPa ) Humid.( % ) Rainrate ( cm )
00:00 9,5 8,4 4,7 SW 6,4 1015,1 93 -
00:06 9,4 8,3 1,4 SW 3,2 1015,1 93 -
00:10 9,4 8,3 3,2 SW 4,8 1015,1 93 -
00:16 9,6 8,7 6,4 SW 8,0 1015,1 94 -
00:20 9,9 9,0 4,7 SSE 9,7 1015,1 94 -
00:26 10,1 9,0 4,7 SSW 6,4 1015,1 93 -
00:30 10,1 9,0 3,2 SW 4,8 1015,1 93 -
00:36 10,1 9,0 4,7 SW 6,4 1015,1 93 -
00:40 10,1 9,0 4,7 SW 6,4 1015,1 93 -
00:46 10,1 9,0 6,4 SW 6,4 1015,1 93 -
00:50 10,1 9,0 6,4 SW 8,0 1015,1 93 -
00:56 10,2 9,1 4,7 SW 8,0 1015,1 93 -
01:00 10,2 9,1 6,4 SW 8,0 1015,1 93 -
01:06 10,3 9,2 4,7 SW 8,0 1015,1 93 -
01:10 10,3 9,2 4,7 SW 6,4 1015,1 93 -
01:16 10,5 9,4 3,2 SW 6,4 1015,1 93 -
01:21 10,5 9,3 3,2 SSW 8,0 1015,1 92 -
01:25 10,6 9,4 4,7 SW 8,0 1015,5 92 -
01:31 10,6 9,4 1,4 SSE 6,4 1015,5 92 -
01:35 10,6 9,4   Calm 4,8 1015,1 92 -
01:41 10,6 9,4 4,7 South 4,8 1015,1 92 -
01:45 10,6 9,4 3,2 SE 3,2 1015,1 92 -
01:51 10,6 9,4   Calm 3,2 1015,1 92 -
01:55 10,6 9,4 1,4 SSE 4,8 1015,1 92 -
02:01 10,6 9,4 3,2 SSW 3,2 1015,1 92 -
02:05 10,6 9,4 1,4 SSW 6,4 1015,1 92 -
02:11 10,6 9,4   Calm 4,8 1015,1 92 -
02:15 10,6 9,4 3,2 South 6,4 1015,1 92 -
02:21 10,7 9,5 4,7 SSW 6,4 1015,1 92 -
02:25 10,7 9,5 3,2 SW 6,4 1015,1 92 -
02:31 10,8 9,6 1,4 SSW 8,0 1015,1 92 -
02:35 10,8 9,6 6,4 SSW 8,0 1015,1 92 -
02:41 10,8 9,6 3,2 SSW 6,4 1015,1 92 -
02:45 10,8 9,6 3,2 SSW 6,4 1015,1 92 -
02:51 10,9 9,7 3,2 SE 4,8 1015,1 92 -
02:55 10,9 9,7 1,4 South 11,3 1014,8 92 -
03:01 10,8 9,6 3,2 SSE 3,2 1015,1 92 -
03:05 10,8 9,6 3,2 SW 4,8 1015,1 92 -
03:11 10,8 9,7 1,4 SSW 4,8 1015,1 93 -
03:15 10,8 9,7 1,4 SSW 6,4 1015,1 93 -
03:21 10,7 9,6 3,2 South 6,4 1015,1 93 -
03:25 10,8 9,7 1,4 SSE 6,4 1014,8 93 -
03:31 10,8 9,7 1,4 WSW 4,8 1014,8 93 -
03:35 10,8 9,7 3,2 SSW 8,0 1014,8 93 -
03:41 10,8 9,7 1,4 SSW 8,0 1014,8 93 -
03:45 10,8 9,7 1,4 South 9,7 1014,8 93 -
03:51 10,8 9,6 4,7 SSW 8,0 1014,8 92 -
03:55 10,8 9,7 4,7 SSW 8,0 1014,8 93 -
04:01 10,8 9,7 4,7 SSW 6,4 1014,8 93 -
04:05 10,8 9,7 3,2 SW 6,4 1014,8 93 -
04:11 10,7 9,6 6,4 SSW 6,4 1014,8 93 -
04:15 10,7 9,6 3,2 SSE 6,4 1014,8 93 -
04:21 10,7 9,6 6,4 South 6,4 1014,4 93 -
04:25 10,7 9,6 3,2 SSE 4,8 1014,4 93 -
04:31 10,7 9,6 3,2 South 4,8 1014,4 93 -
04:35 10,8 9,7 4,7 South 6,4 1014,4 93 -
04:41 10,8 9,7 7,9 SW 11,3 1014,4 93 -
04:45 10,9 9,8 4,7 South 8,0 1014,4 93 -
04:51 10,9 9,8 6,4 SSW 8,0 1014,4 93 -
04:55 10,9 10,0 7,9 SW 11,3 1014,4 94 -
05:01 11,0 10,1 3,2 SSW 6,4 1014,4 94 0,30
05:05 10,9 10,0 3,2 SW 6,4 1014,1 94 0,30
05:11 10,9 10,0 1,4 South 4,8 1014,1 94 0,30
05:15 10,9 10,0 3,2 SE 8,0 1014,1 94 0,30
05:21 10,9 10,0 1,4 SW 6,4 1014,1 94 0,30
05:25 10,9 10,0 1,4 SSW 4,8 1014,1 94 0,30
05:31 10,9 10,0 3,2 SW 6,4 1014,1 94 0,30
05:35 10,9 10,0 3,2 SSW 6,4 1014,1 94 0,30
05:41 10,8 9,9 4,7 SSW 6,4 1014,1 94 0,30
05:45 10,8 9,9 4,7 South 6,4 1014,1 94 0,30
05:51 10,7 9,8 1,4 SSW 8,0 1013,8 94 0,30
05:55 10,6 9,7 6,4 SSW 6,4 1014,1 94 0,30
06:01 10,5 9,6 3,2 SSW 4,8 1014,1 94 -
06:05 10,4 9,5   Calm 6,4 1014,1 94 -
06:11 10,4 9,5 1,4 SSW 4,8 1014,1 94 -
06:15 10,3 9,4 1,4 South 6,4 1013,8 94 -
06:21 10,3 9,4 4,7 South 4,8 1013,8 94 -
06:25 10,3 9,4 1,4 SSE 3,2 1013,8 94 -
06:31 10,3 9,4 1,4 South 4,8 1014,1 94 -
06:35 10,3 9,4 1,4 SSE 4,8 1013,8 94 -
06:41 10,3 9,4 1,4 South 3,2 1014,1 94 -
06:45 10,3 9,4 3,2 South 4,8 1014,1 94 -
06:51 10,3 9,4   Calm 3,2 1013,8 94 -
06:55 10,3 9,4   Calm 3,2 1014,1 94 -
07:01 10,3 9,4 1,4 SE 3,2 1013,8 94 -
07:05 10,3 9,4 1,4 SSE 4,8 1013,8 94 -
07:11 10,3 9,4   Calm 4,8 1013,8 94 -
07:15 10,3 9,4 1,4 SW 3,2 1013,8 94 -
07:21 10,3 9,4 4,7 SW 6,4 1013,8 94 -
07:25 10,2 9,3 3,2 South 4,8 1014,1 94 -
07:31 10,2 9,3   Calm 3,2 1013,8 94 -
07:35 10,1 9,0   Calm 1,6 1013,8 93 -
07:41 9,9 9,0 1,4 SSW 3,2 1013,8 94 -
07:45 9,9 9,0 3,2 SSE 4,8 1013,8 94 -
07:52 9,8 8,9   Calm 3,2 1013,8 94 -
07:56 9,8 8,9 1,4 SW 3,2 1013,8 94 -
08:00 9,8 8,9 1,4 SSW 4,8 1013,8 94 -
08:06 9,8 8,9 3,2 SSE 4,8 1013,8 94 -
08:10 9,8 8,9 1,4 SSW 4,8 1013,8 94 -
08:16 9,8 8,9 1,4 SW 3,2 1013,8 94 -
08:20 9,8 8,9   Calm 1,6 1013,8 94 -
08:26 9,7 8,8   Calm 4,8 1013,8 94 -
08:30 9,7 8,8 1,4 SSW 3,2 1013,8 94 -
08:36 9,7 8,8   Calm 3,2 1013,8 94 -
08:40 9,7 8,8   Calm 3,2 1013,8 94 -
08:46 9,8 8,9   Calm 1,6 1014,1 94 -
08:50 9,8 9,0 1,4 SSW 3,2 1014,1 95 -
08:56 10,0 9,2 1,4 SSW 3,2 1014,1 95 -
09:00 10,2 9,4   Calm 3,2 1014,1 95 -
09:06 10,5 9,7 1,4 SSW 4,8 1014,1 95 -
09:10 10,7 9,9 4,7 South 9,7 1014,1 95 -
09:16 11,1 10,2 9,7 SW 12,9 1014,1 94 -
09:20 11,3 10,2 11,1 SW 16,1 1014,1 93 -
09:26 11,6 10,3 16,3 SSW 16,1 1014,1 92 -
09:30 11,7 10,4 4,7 SSW 16,1 1014,1 92 -
09:36 11,9 10,5 13,0 SW 17,7 1014,1 91 -
09:40 12,1 10,5 11,1 SW 19,3 1014,1 90 -
09:46 12,2 10,4 7,9 South 14,5 1014,1 89 -
09:50 12,3 10,5 7,9 SSW 16,1 1014,1 89 -
09:56 12,3 10,5 9,7 SW 17,7 1014,1 89 -
10:00 12,4 10,5 14,3 SW 16,1 1014,1 88 -
10:06 12,6 10,7 6,4 SSW 12,9 1014,1 88 -
10:10 12,7 10,8 7,9 South 14,5 1014,4 88 -
10:16 12,8 10,7 16,3 SW 17,7 1014,4 87 -
10:20 12,9 10,6 9,7 SW 19,3 1014,4 86 -
10:26 13,1 11,0 6,4 SSW 12,9 1014,4 87 -
10:30 13,3 11,0 7,9 South 16,1 1014,4 86 -
10:36 13,6 11,3 13,0 South 12,9 1014,4 86 -
10:40 13,7 11,0 13,0 SW 14,5 1014,4 84 -
10:46 13,8 11,1 11,1 SW 17,7 1014,4 84 -
10:50 13,8 11,1 7,9 SW 14,5 1014,4 84 -
10:56 14,0 11,3 4,7 SSW 14,5 1014,4 84 -
11:00 14,1 11,4 6,4 SW 20,9 1014,4 84 -
11:06 14,3 11,3 9,7 SSE 19,3 1014,4 82 -
11:10 14,3 11,1 14,3 SW 22,5 1014,1 81 -
11:16 14,4 11,4 6,4 SSW 19,3 1014,4 82 -
11:20 14,5 11,3 17,7 SW 22,5 1014,4 81 -
11:26 14,7 11,3 13,0 SSW 24,1 1014,1 80 -
11:30 14,8 11,2 13,0 SW 25,7 1014,1 79 -
11:36 14,8 10,8 14,3 South 25,7 1014,1 77 -
11:40 14,9 11,1 17,7 SW 27,4 1014,1 78 -
11:46 15,1 10,9 17,7 SW 27,4 1014,1 76 -
11:50 15,2 10,6 14,3 SW 27,4 1014,1 74 -
11:56 15,3 11,1 16,3 SW 24,1 1014,1 76 -
12:00 15,4 10,8 20,9 SW 29,0 1014,1 74 -
12:06 15,7 11,1 17,7 SW 32,2 1014,1 74 -
12:10 15,8 11,2 22,7 SSW 25,7 1014,1 74 -
12:16 15,8 11,2 19,5 WSW 29,0 1014,1 74 -
12:20 15,8 11,0 22,7 SSW 29,0 1014,1 73 -
12:26 16,1 11,3 22,7 SSW 27,4 1013,8 73 -
12:30 16,3 11,5 16,3 SW 25,7 1013,8 73 -
12:36 16,5 11,2 19,5 SW 29,0 1013,8 71 -
12:40 16,6 11,5 14,3 SW 25,7 1013,8 72 -
12:46 16,9 11,8 22,7 SSW 22,5 1013,8 72 -
12:50 17,1 12,0 14,3 SW 19,3 1013,4 72 -
12:56 17,2 11,5 17,7 SW 19,3 1013,4 69 -
13:00 17,2 11,5 24,1 SW 27,4 1013,4 69 -
13:06 17,3 10,7 19,5 WSW 29,0 1013,4 65 -
13:10 17,3 10,2 19,5 SW 32,2 1013,4 63 -
13:16 17,4 11,7 16,3 SW 25,7 1013,4 69 -
13:20 17,4 11,0 17,7 SW 29,0 1013,4 66 -
13:26 17,3 10,4 25,9 SW 35,4 1013,4 64 -
13:30 17,3 9,9 19,5 SW 33,8 1013,1 62 -
13:36 17,3 10,4 25,9 SW 32,2 1013,4 64 -
13:40 17,3 9,7 24,1 SW 33,8 1013,1 61 -
13:46 17,4 10,0 11,1 SW 29,0 1013,1 62 -
13:50 17,4 10,3 22,7 SW 33,8 1013,1 63 -
13:56 17,4 9,8 28,8 SW 35,4 1013,1 61 -
14:00 17,4 9,8 20,9 SW 30,6 1013,1 61 -
14:06 17,6 10,5 14,3 SW 35,4 1013,1 63 -
14:10 17,7 10,8 14,3 SW 22,5 1012,8 64 -
14:16 17,7 10,1 17,7 SW 30,6 1012,8 61 -
14:20 17,6 10,0 25,9 SW 30,6 1012,8 61 -
14:26 17,6 10,2 24,1 SSW 27,4 1012,8 62 -
14:30 17,9 10,8 19,5 WSW 25,7 1012,8 63 -
14:36 18,2 11,0 19,5 SW 24,1 1012,8 63 -
14:40 18,4 11,0 13,0 South 24,1 1012,8 62 -
14:46 18,7 11,3 24,1 SW 25,7 1012,8 62 -
14:50 18,6 9,9 24,1 SW 32,2 1012,8 57 -
14:56 18,3 9,6 19,5 SW 35,4 1012,8 57 -
15:00 18,1 9,7 17,7 SW 25,7 1012,8 58 -
15:06 18,1 10,2 9,7 SW 16,1 1012,8 60 -
15:10 18,1 10,0 27,4 SW 29,0 1012,8 59 -
15:16 18,3 10,6 24,1 SW 24,1 1012,8 61 -
15:20 18,4 10,5 25,9 WSW 29,0 1012,4 60 -
15:26 18,7 10,0 24,1 SW 30,6 1012,4 57 -
15:30 18,7 10,3 17,7 WSW 30,6 1012,4 58 -
15:36 18,8 10,6 17,7 WSW 24,1 1012,4 59 -
15:40 18,8 10,1 24,1 SW 37,0 1012,4 57 -
15:46 18,6 9,6 11,1 WSW 29,0 1012,4 56 -
15:50 18,6 10,4 27,4 SW 29,0 1012,4 59 -
15:56 18,4 10,7 25,9 SW 27,4 1012,4 61 -
16:01 18,3 10,4 11,1 SW 27,4 1012,1 60 -
16:05 18,2 9,8 22,7 SW 32,2 1012,4 58 -
16:11 18,0 9,9 6,4 SW 19,3 1012,4 59 -
16:15 17,8 10,2 11,1 SW 14,5 1012,1 61 -
16:21 17,7 10,6 13,0 SW 19,3 1012,1 63 -
16:25 17,7 10,8 14,3 SW 17,7 1012,1 64 -
16:31 17,6 10,7 20,9 SW 20,9 1012,1 64 -
16:35 17,6 10,5 7,9 SW 24,1 1012,4 63 -
16:41 17,7 10,3 20,9 SW 22,5 1012,1 62 -
16:45 17,6 10,2 7,9 SW 24,1 1012,1 62 -
16:51 17,6 10,0 16,3 SW 25,7 1012,1 61 -
16:55 17,6 10,2 7,9 SW 19,3 1012,1 62 -
17:01 17,5 10,1 14,3 SW 19,3 1012,1 62 -
17:05 17,4 10,3 11,1 WSW 20,9 1012,1 63 -
17:11 17,4 10,3 7,9 SSW 17,7 1012,1 63 -
17:15 17,3 10,2 11,1 WSW 20,9 1012,1 63 -
17:21 17,3 10,4 11,1 West 17,7 1012,1 64 -
17:25 17,3 10,4 14,3 WSW 17,7 1012,1 64 -
17:31 17,3 10,4 11,1 SW 16,1 1012,1 64 -
17:35 17,2 10,6 7,9 SW 17,7 1012,1 65 -
17:41 17,0 11,3 11,1 SSW 12,9 1012,1 69 -
17:45 16,8 11,3 13,0 SW 14,5 1012,1 70 -
17:51 16,7 11,4 11,1 SSW 16,1 1012,1 71 -
17:55 16,6 11,3 13,0 SSW 16,1 1011,7 71 -
18:01 16,4 11,1 7,9 SSW 16,1 1012,1 71 -
18:05 16,4 10,9 22,7 SW 22,5 1011,7 70 -
18:11 16,5 10,8 9,7 SSW 19,3 1012,1 69 -
18:15 16,3 10,8 9,7 SW 16,1 1012,1 70 -
18:21 16,2 10,9 9,7 SW 14,5 1012,1 71 -
18:25 16,2 10,7 9,7 West 14,5 1012,1 70 -
18:31 16,3 10,2 17,7 WSW 32,2 1011,7 67 -
18:35 16,5 10,1 20,9 SSW 30,6 1011,7 66 -
18:41 16,6 10,4 17,7 SW 25,7 1011,7 67 -
18:45 16,3 10,4 16,3 SSW 24,1 1011,7 68 -
18:51 16,2 10,3 17,7 West 25,7 1012,1 68 -
18:55 16,1 10,6 9,7 SW 17,7 1012,1 70 -
19:01 15,7 10,9 20,9 SW 20,9 1012,1 73 -
19:05 15,6 11,0 9,7 SSW 17,7 1012,1 74 -
19:11 15,1 11,1 7,9 SW 14,5 1012,1 77 -
19:15 14,9 11,3 14,3 SW 14,5 1012,1 79 -
19:21 14,7 11,3 7,9 SW 16,1 1012,1 80 -
19:25 14,6 11,4 13,0 SW 16,1 1012,1 81 0,30

Download your copy of this data-set  here

Our weather-data as stored at Weather Underground. Script developed by Jim McMurry. Adapted for the template by Leuven-Template.eu

You find our weather info also at:

Weather Underground

Equipment we use:

Weather-station
Davis Vue

Weather-program
Meteobridge

Weather-server
Raspberry PI 2 B+

Provider
1 and 1

Davis Vue

Meteobridge

Raspberry PI 2 B+

1 and 1